La Palma > ESTACION METEOROLÓGICA Bodegas Teneguía - Fuencaliente

DATOS ACTUALES Online

Ultima actulizacion 16 minutos

14.9 ºC

Temperatura

78

Humedad (%)

939.79

Presión (mb)

0

Precipitación (mm)

41.2 NW

Viento (Km/h)

DATOS DIARIOS

Temperatura últimas 24 horas (ºC)

Humedad últimas 24 horas (%)

Presión atmosférica últimas 24 horas (mb)

Precipitaciones últimas 23 horas (mm)

Viento últimas 24 horas (Km/h)

Hora Temperatura (°C) ºC Precipitación (mm) mm Presión (mb) mb Humedad (%) % Viento (Km/h) km/h
19 - 10:00 12.4 0 939 88 44.4 NW
19 - 11:00 13 0 940 88 43.9 NW
19 - 12:00 13 0 940 88 41 NW
19 - 13:00 12.9 0 939 88 31.9 NW
19 - 14:00 13.2 0 938 88 37.1 NW
19 - 15:00 13.6 0 938 88 31.4 NW
19 - 16:00 13.3 0 938 88 26.4 NW
19 - 17:00 13.3 0 938 88 28.3 NW
19 - 18:00 13.2 0 938 88 27.7 NW
19 - 19:00 13.2 0 939 88 24.9 NW
19 - 20:00 12.9 0 939 88 27.6 NW
19 - 21:00 12.8 0 940 88 23.6 NW
19 - 22:00 12.8 0 940 87 26.9 NW
19 - 23:00 12.9 0 940 88 27.9 W
20 - 00:00 12.5 0 940 86 31.5 W
20 - 01:00 13.1 0 939 84 30 W
20 - 02:00 13.4 0 939 84 42.3 W
20 - 03:00 13.2 0 939 83 39.5 W
20 - 04:00 13.6 0 938 81 40.1 W
20 - 05:00 13.6 0 938 80 36.9 W
20 - 06:00 13.8 0 938 80 44.6 W
20 - 07:00 13.9 0 938 78 44.8 W
20 - 08:00 13.9 0 939 78 48 W
20 - 09:00 14.2 0 939 78 41.5 W
20 - 10:00 14.9 0 940 78 41.2 NW
Apalmet utiliza cookies propias y de terceros para mejorar la usabilidad y la experiencia web. Política de cookies.